Jefferson, NC

4:58 PM EDT on October 22, 2017 (GMT -0400)
Ashe County

Weather History for KGEV - March, 2012

Change the Weather History Date:

Monday, March 5, 2012

  Actual Average Record
Temperature  
Mean Temperature 30 °F -  
Max Temperature 33 °F 56 °F 72 °F (1976)
Min Temperature 28 °F 32 °F 7 °F (1978)
Degree Days  
Heating Degree Days 34    
Moisture  
Dew Point 21 °F    
Average Humidity 66    
Maximum Humidity 100    
Minimum Humidity 41    
Precipitation  
Precipitation 0.02 in - - ()
Sea Level Pressure  
Sea Level Pressure 30.02 in    
Wind  
Wind Speed 12 mph (WNW)    
Max Wind Speed 36 mph    
Max Gust Speed 51 mph    
Visibility 7 miles    
Events Snow    
Averages and records for this station are not official NWS values.
T = Trace of Precipitation, MM = Missing Value Source: NWS Daily Summary

Daily Weather History Graph

Daily Weather History Graph

Search for Another Location

Airport or City:

Trip Planner

Search our weather history database for the weather conditions in past years. The results will help you decide how hot, cold, wet, or windy it might be!

Date:

Astronomy

Mar. 05, 2012 Rise Set
Actual Time 6:50 AM EST 6:24 PM EST
Civil Twilight 6:24 AM EST 6:50 PM EST
Nautical Twilight 5:54 AM EST 7:20 PM EST
Astronomical Twilight 5:24 AM EST 7:50 PM EST
Moon 3:44 PM EST (3/5) 4:44 AM EST (3/5)
Length of Visible Light 12h 26m
Length of Day
11h 34m
Waxing Gibbous, 91% of the Moon is Illuminated
Mar 5
Waxing Gibbous
Mar 8
Full
Mar 14
Last Quarter
Mar 22
New
Mar 30
First Quarter

Hourly Weather History & Observations

Time (EST) Temp. Windchill Dew Point Humidity Pressure Visibility Wind Dir Wind Speed Gust Speed Precip Events Conditions
12:15 AM 33.8 °F 25.3 °F 19.4 °F 56% 29.88 in 10.0 mi West 11.5 mph 21.9 mph N/A   Overcast
12:35 AM 33.8 °F 27.0 °F 19.4 °F 56% 29.88 in 10.0 mi West 8.1 mph 19.6 mph N/A   Overcast
12:55 AM 32.0 °F 26.4 °F 23.0 °F 69% 29.88 in 5.0 mi West 5.8 mph 17.3 mph N/A Snow Light Snow
1:15 AM 30.2 °F 26.7 °F 26.6 °F 86% 29.88 in 1.5 mi WSW 3.5 mph - N/A Snow Light Snow
1:55 AM 30.2 °F 26.7 °F 26.6 °F 86% 29.85 in 10.0 mi West 3.5 mph - N/A Snow Light Snow
2:15 AM 32.0 °F 27.5 °F 26.6 °F 80% 29.83 in 7.0 mi West 4.6 mph - N/A Snow Light Snow
2:35 AM 32.0 °F 28.7 °F 24.8 °F 75% 29.83 in 10.0 mi West 3.5 mph - N/A   Scattered Clouds
2:55 AM 32.0 °F - 26.6 °F 80% 29.82 in 10.0 mi Calm Calm - N/A   Mostly Cloudy
3:15 AM 32.0 °F 26.4 °F 26.6 °F 80% 29.82 in 10.0 mi SSW 5.8 mph - N/A   Overcast
3:35 AM 32.0 °F 25.6 °F 26.6 °F 80% 29.79 in 10.0 mi SSE 6.9 mph - N/A   Overcast
4:15 AM 32.0 °F 25.6 °F 26.6 °F 80% 29.78 in 5.0 mi South 6.9 mph - N/A Snow Light Snow
4:35 AM 32.0 °F 26.4 °F 26.6 °F 80% 29.79 in 4.0 mi South 5.8 mph - N/A Snow Light Snow
4:55 AM 32.0 °F 26.4 °F 28.4 °F 87% 29.79 in 1.0 mi South 5.8 mph - N/A Snow Snow
5:15 AM 32.0 °F - 30.2 °F 93% 29.79 in 1.0 mi Calm Calm - N/A Snow Light Snow
5:35 AM 32.0 °F - 30.2 °F 93% 29.79 in 4.0 mi Calm Calm - N/A Snow Light Snow
5:55 AM 32.0 °F - 30.2 °F 93% 29.79 in 1.0 mi Calm Calm - N/A Snow Snow
6:15 AM 32.0 °F - 30.2 °F 93% 29.79 in 1.0 mi Calm Calm - 0.01 in Snow Snow
6:35 AM 32.0 °F 20.5 °F 32.0 °F 100% 29.78 in 2.5 mi West 18.4 mph 32.2 mph 0.01 in Snow Light Snow
6:55 AM 32.0 °F 19.5 °F 30.2 °F 93% 29.79 in 0.5 mi West 21.9 mph 28.8 mph 0.01 in Snow Heavy Snow
7:15 AM 32.0 °F 20.8 °F 26.6 °F 80% 29.80 in 7.0 mi West 17.3 mph 27.6 mph N/A   Overcast
7:35 AM 33.8 °F 21.6 °F 26.6 °F 75% 29.82 in 4.0 mi WNW 23.0 mph 42.6 mph N/A Snow Light Snow
7:55 AM 32.0 °F 16.5 °F 24.8 °F 75% 29.83 in 0.2 mi WNW 35.7 mph 46.0 mph N/A Snow Light Snow
8:15 AM 32.0 °F 18.1 °F 26.6 °F 80% 29.86 in 0.2 mi WNW 27.6 mph 49.5 mph N/A Snow Light Snow
8:35 AM 32.0 °F 20.5 °F 26.6 °F 80% 29.89 in 0.8 mi WNW 18.4 mph 42.6 mph N/A Snow Light Snow
8:55 AM 32.0 °F 22.1 °F 24.8 °F 75% 29.92 in 1.0 mi NW 13.8 mph 36.8 mph N/A Snow Light Snow
9:15 AM 30.2 °F 18.9 °F 26.6 °F 86% 29.94 in 0.8 mi NNW 16.1 mph 27.6 mph N/A Snow Light Snow
9:35 AM 30.2 °F 17.8 °F 24.8 °F 80% 29.96 in 0.5 mi NW 19.6 mph 28.8 mph N/A Snow Light Snow
9:55 AM 30.2 °F 20.8 °F 23.0 °F 75% 29.98 in 1.2 mi NNW 11.5 mph 34.5 mph 0.01 in Snow Light Snow
10:15 AM 30.2 °F 19.3 °F 21.2 °F 69% 30.00 in 2.5 mi NW 15.0 mph 35.7 mph N/A Snow Light Snow
10:35 AM 32.0 °F 18.4 °F 21.2 °F 64% 30.00 in 7.0 mi WNW 26.5 mph 42.6 mph N/A   Overcast
10:55 AM 32.0 °F 16.7 °F 17.6 °F 55% 30.01 in 5.0 mi NW 34.5 mph 47.2 mph N/A   Haze
11:15 AM 32.0 °F 20.5 °F 17.6 °F 55% 30.04 in 7.0 mi NW 18.4 mph 42.6 mph N/A   Overcast
11:35 AM 30.2 °F 17.8 °F 19.4 °F 64% 30.05 in 3.0 mi NNW 19.6 mph 35.7 mph N/A Snow Light Snow
11:55 AM 32.0 °F 20.8 °F 21.2 °F 64% 30.06 in 10.0 mi NNW 17.3 mph 25.3 mph N/A   Overcast
12:15 PM 32.0 °F 17.9 °F 17.6 °F 55% 30.07 in 10.0 mi NW 28.8 mph 50.6 mph N/A   Overcast
12:35 PM 32.0 °F 21.6 °F 17.6 °F 55% 30.09 in 10.0 mi NW 15.0 mph 28.8 mph N/A   Mostly Cloudy
12:55 PM 32.0 °F 20.8 °F 17.6 °F 55% 30.09 in 10.0 mi NW 17.3 mph 28.8 mph N/A   Mostly Cloudy
1:15 PM 32.0 °F 18.9 °F 19.4 °F 60% 30.10 in 7.0 mi WNW 24.2 mph 34.5 mph N/A Snow Light Snow
1:35 PM 32.0 °F 18.9 °F 17.6 °F 55% 30.11 in 10.0 mi NW 24.2 mph 32.2 mph N/A   Mostly Cloudy
1:55 PM 32.0 °F 19.2 °F 17.6 °F 55% 30.11 in 10.0 mi WNW 23.0 mph 32.2 mph N/A   Mostly Cloudy
2:15 PM 33.8 °F 20.1 °F 14.0 °F 44% 30.12 in 10.0 mi WNW 29.9 mph 40.3 mph N/A   Scattered Clouds
2:35 PM 33.8 °F 21.9 °F 14.0 °F 44% 30.13 in 10.0 mi NNW 21.9 mph 35.7 mph N/A   Mostly Cloudy
2:55 PM 33.8 °F 23.9 °F 14.0 °F 44% 30.15 in 10.0 mi WNW 15.0 mph 34.5 mph N/A   Scattered Clouds
3:15 PM 32.0 °F 19.8 °F 10.4 °F 41% 30.15 in 10.0 mi NNW 20.7 mph 34.5 mph N/A   Scattered Clouds
3:35 PM 32.0 °F 23.6 °F 14.0 °F 48% 30.16 in 10.0 mi NW 10.4 mph 24.2 mph N/A   Scattered Clouds
3:55 PM 32.0 °F 21.6 °F 17.6 °F 55% 30.17 in 10.0 mi NW 15.0 mph 31.1 mph N/A   Overcast
4:15 PM 32.0 °F 19.5 °F 14.0 °F 48% 30.17 in 10.0 mi NW 21.9 mph 35.7 mph N/A   Mostly Cloudy
4:35 PM 32.0 °F 22.5 °F 17.6 °F 55% 30.19 in 10.0 mi NNW 12.7 mph 25.3 mph N/A   Mostly Cloudy
5:15 PM 32.0 °F 20.8 °F 14.0 °F 48% 30.21 in 10.0 mi NNW 17.3 mph 27.6 mph N/A   Clear
5:35 PM 32.0 °F 21.6 °F 14.0 °F 48% 30.23 in 10.0 mi NW 15.0 mph 40.3 mph N/A   Clear
5:55 PM 32.0 °F 21.6 °F 14.0 °F 48% 30.24 in 10.0 mi WNW 15.0 mph 24.2 mph N/A   Clear
6:15 PM 32.0 °F 20.8 °F 14.0 °F 48% 30.25 in 10.0 mi NW 17.3 mph 29.9 mph N/A   Clear
6:35 PM 30.2 °F 19.8 °F 14.0 °F 51% 30.26 in 10.0 mi NNW 13.8 mph 27.6 mph N/A   Clear
6:55 PM 30.2 °F 20.2 °F 12.2 °F 47% 30.27 in 10.0 mi NW 12.7 mph 19.6 mph N/A   Clear
7:15 PM 30.2 °F 22.6 °F 14.0 °F 51% 30.29 in 10.0 mi WNW 8.1 mph 17.3 mph N/A   Clear
7:35 PM 30.2 °F 21.9 °F 14.0 °F 51% 30.31 in 10.0 mi NNW 9.2 mph 20.7 mph N/A   Clear
7:55 PM 30.2 °F 26.7 °F 14.0 °F 51% 30.31 in 10.0 mi NW 3.5 mph - N/A   Clear
8:15 PM 28.4 °F 22.2 °F 14.0 °F 55% 30.32 in 10.0 mi North 5.8 mph - N/A   Clear
8:35 PM 28.4 °F 20.4 °F 14.0 °F 55% 30.32 in 10.0 mi North 8.1 mph - N/A   Clear
8:55 PM 28.4 °F 18.0 °F 14.0 °F 55% 30.33 in 10.0 mi NNW 12.7 mph 17.3 mph N/A   Clear
9:15 PM 28.4 °F 16.6 °F 14.0 °F 55% 30.33 in 10.0 mi NNW 16.1 mph 20.7 mph N/A   Clear
9:35 PM 28.4 °F 19.1 °F 14.0 °F 55% 30.35 in 10.0 mi NW 10.4 mph 21.9 mph N/A   Clear
9:55 PM 28.4 °F 19.7 °F 14.0 °F 55% 30.36 in 10.0 mi NW 9.2 mph 19.6 mph N/A   Clear
10:15 PM 28.4 °F - 14.0 °F 55% 30.36 in 10.0 mi Calm Calm - N/A   Clear
10:35 PM 28.4 °F 23.3 °F 14.0 °F 55% 30.36 in 10.0 mi NW 4.6 mph - N/A   Clear
10:55 PM 28.4 °F 23.3 °F 12.2 °F 51% 30.36 in 10.0 mi WNW 4.6 mph 17.3 mph N/A   Clear
11:35 PM 26.6 °F - 14.0 °F 59% 30.36 in 10.0 mi Calm Calm - N/A   Clear
11:55 PM 26.6 °F 19.1 °F 14.0 °F 59% 30.36 in 10.0 mi West 6.9 mph - N/A   Clear